Dewpoint
17 16 16 16 16 15 14 14 13 14 13 13 15 13 14 14 13 13 13 13 13 13 12 14 13 14 13 13 13 13 14 15 15 14 14 14 13 13 13 13 12 12 12
16 16 16 16 16 16 15 15 14 15 13 14 15 15 13 13 13 14 14 14 14 14 13 13 13 14 14 14 13 13 14 15 15 15 13 13 13 13 13 13 12 12 12
16 16 16 15 15 15 15 15 15 14 15 15 15 14 14 14 13 13 13 14 14 14 13 13 13 13 13 15 13 14 15 14 14 14 13 13 13 13 13 12 12 12 11
15 16 16 15 15 15 15 15 15 13 15 14 14 14 14 14 14 14 13 13 13 14 13 13 13 13 13 13 13 14 15 15 14 14 13 13 13 13 12 12 12 12 11
16 15 16 16 15 15 15 15 15 14 14 14 14 14 14 13 14 13 13 13 13 12 12 12 13 13 10 10 13 14 15 14 15 14 14 13 13 13 13 12 12 11 11
16 15 16 15 16 15 15 15 15 14 14 14 13 13 14 13 12 13 13 12 13 13 12 12 13 12 8 9 12 14 14 14 13 13 14 14 14 13 13 12 12 11 11
17 16 16 16 16 15 15 15 15 14 14 14 14 14 14 14 13 12 11 10 12 12 13 12 12 13 9 10 9 11 13 13 13 13 13 13 14 13 13 12 12 11 11
17 16 16 16 16 15 15 15 14 15 15 14 14 14 14 14 13 13 13 12 9 12 12 12 12 12 12 12 11 11 13 12 13 13 13 12 11 12 13 13 13 12 11
17 17 17 16 16 16 16 15 15 15 15 14 15 14 14 14 12 11 13 12 10 9 11 12 12 12 12 9 12 13 11 10 9 10 11 12 12 12 12 12 12 12 11
17 17 16 16 16 16 15 15 15 15 16 14 14 14 14 13 11 10 11 13 11 10 11 12 11 9 9 7 8 12 12 11 11 9 8 10 12 12 11 11 12 12 11
17 16 16 16 16 16 15 15 15 15 14 14 14 15 14 13 11 10 11 11 11 9 11 11 11 11 9 8 6 9 11 12 12 11 9 9 9 11 11 10 11 11 11
16 16 16 16 16 16 15 15 15 14 14 14 13 14 14 13 12 10 10 12 11 11 10 11 11 12 11 10 8 7 8 11 11 11 10 11 10 9 9 9 8 10 11
13 11 15 16 15 16 15 15 14 15 14 15 14 13 14 14 13 12 11 11 12 12 12 11 11 12 11 11 9 9 7 6 6 8 9 9 10 9 9 9 9 9 8
13 9 14 15 15 15 14 14 15 14 13 14 13 13 13 13 13 13 12 11 11 11 11 12 12 11 10 10 9 9 9 8 7 7 7 7 7 6 5 5 7 9 9
13 14 9 12 12 12 14 14 14 14 14 13 13 12 12 13 12 12 13 12 12 12 11 11 12 12 12 11 11 10 10 10 10 9 8 7 7 7 6 5 5 4 5
14 12 13 13 13 13 14 14 12 12 11 6 11 9 7 6 8 7 6 7 10 10 10 11 11 12 12 12 12 12 11 11 11 10 10 8 8 8 8 7 6 5 6
13 13 13 13 13 13 14 13 9 4 -0 1 2 0 0 3 6 6 6 7 8 8 9 9 10 11 11 11 12 11 12 12 11 11 11 10 9 9 9 9 9 8 8
14 14 14 13 13 13 12 11 11 9 8 8 8 6 7 5 5 6 6 7 8 8 10 10 9 11 11 10 10 10 10 10 10 11 11 10 10 10 10 9 9 9 9
11 11 10 9 10 10 9 9 8 8 10 10 9 8 8 6 6 7 7 7 9 9 9 11 10 9 10 9 6 5 4 5 7 9 9 9 9 9 9 9 9 9 9
8 8 10 10 9 6 6 6 7 7 8 9 10 9 8 8 8 9 8 10 10 8 8 8 8 9 9 9 9 8 8 7 7 7 6 5 6 7 7 8 8 8 8
7 6 6 7 7 8 9 9 8 8 8 10 10 10 9 10 8 8 8 8 8 8 8 9 9 8 7 7 9 9 9 8 8 8 8 9 8 8 8 7 6 7 7
9 8 8 8 8 9 9 9 9 10 10 10 10 9 8 8 8 8 8 8 7 7 7 8 7 8 8 7 7 7 7 6 6 7 7 7 7 6 6 6 7 7 7
8 7 7 7 6 7 7 7 7 9 9 9 9 8 8 8 8 8 8 8 7 7 6 6 6 5 6 5 4 3 3 2 2 3 4 4 5 5 5 5 6 6 6
6 8 9 8 8 8 9 8 8 8 8 9 8 8 8 8 7 7 7 7 6 6 6 5 4 4 4 5 2 -0 -1 -2 -0 1 2 4 4 4 4 4 4 4 4
7 7 7 9 9 8 9 8 8 8 8 8 7 7 7 7 7 6 5 5 4 4 4 5 5 5 5 4 1 -5 -5 -5 -5 -4 -2 1 3 3 3 3 2 3 3
7 8 7 8 8 8 7 7 7 6 6 6 6 5 5 5 5 5 4 2 1 2 1 1 1 0 -1 -4 -5 -4 -4 -4 -5 -4 -4 -3 3 2 2 2 2 1 1
Wind_Speed
15 12 10 9 8 10 9 10 11 11 5 6 4 7 7 4 5 5 6 6 6 6 9 10 13 12 11 14 16 15 15 19 14 12 17 13 11 11 9 6 7 6 7
15 13 9 10 12 13 9 9 6 8 5 5 5 4 7 4 4 4 5 4 4 7 8 10 11 11 11 10 11 13 14 16 22 18 16 18 14 13 11 9 6 7 7
16 14 12 10 11 15 12 11 9 8 5 3 3 5 3 4 6 5 6 6 6 6 6 9 10 9 11 9 9 7 11 18 17 14 16 19 18 16 14 13 12 11 8
16 15 17 13 12 16 16 15 16 12 8 6 6 7 7 5 5 7 7 6 5 5 7 7 5 9 9 9 7 5 12 15 15 11 15 18 19 18 17 17 16 15 7
21 16 19 15 12 14 15 16 13 10 10 11 10 9 8 7 10 8 9 3 5 4 6 5 8 11 11 8 5 5 10 12 10 11 15 18 19 20 21 19 17 13 11
22 16 21 18 16 15 18 17 14 13 13 12 10 8 10 11 13 10 12 9 6 6 6 6 7 8 4 4 5 6 5 7 9 11 15 17 18 18 19 18 18 16 15
24 19 22 21 22 21 20 17 15 14 12 10 10 9 9 12 9 11 12 11 10 6 5 4 4 7 7 5 2 5 8 9 7 6 9 11 14 16 20 22 22 23 20
25 22 27 24 23 22 22 20 16 14 12 9 11 11 10 11 6 8 12 13 12 10 7 5 6 5 3 5 3 1 3 8 9 9 10 11 11 13 17 20 21 22 20
32 30 28 28 28 25 24 21 19 17 13 11 10 9 11 8 5 5 5 10 11 9 8 8 10 7 8 7 6 7 6 4 4 6 8 9 11 9 11 18 18 22 25
36 31 31 30 28 27 25 22 20 16 13 9 7 8 8 5 7 7 5 9 11 11 10 8 9 11 9 5 8 5 5 7 6 5 7 8 9 9 10 11 16 23 23
34 32 33 30 28 26 23 22 19 16 10 11 10 7 6 5 8 7 3 7 12 11 8 9 8 7 10 9 8 10 8 7 8 10 9 5 8 14 15 14 16 17 18
32 36 36 33 28 23 21 20 18 14 19 14 7 4 4 6 8 7 3 6 11 13 12 11 10 9 9 8 10 12 13 12 11 8 9 12 12 11 9 10 14 19 20
24 66 29 28 23 18 18 15 14 18 13 7 4 3 1 6 9 4 3 3 9 12 14 15 14 12 11 13 13 13 14 16 15 16 15 16 17 15 14 12 12 12 17
23 34 10 6 12 16 16 14 17 9 9 11 10 7 5 4 5 6 4 3 8 9 12 14 17 21 23 22 20 17 16 16 17 18 19 17 17 16 20 20 20 22 24
11 24 10 19 17 17 13 10 13 15 15 10 9 8 8 8 7 8 8 9 11 11 10 13 13 14 14 15 16 19 20 20 20 21 22 21 19 20 22 24 26 28 26
12 15 16 17 16 13 16 19 18 13 11 10 12 8 6 7 8 8 7 7 9 10 12 13 13 16 20 21 19 20 17 19 18 20 23 20 24 28 24 22 22 24 28
8 7 8 10 13 14 16 12 6 9 8 7 6 5 3 3 3 4 4 4 5 7 8 5 7 7 7 10 13 18 21 22 22 22 24 24 28 30 28 29 34 30 28
12 10 10 12 14 13 14 12 10 8 9 10 10 10 9 10 5 5 5 5 5 8 7 5 7 5 5 6 8 10 12 16 18 20 21 21 22 28 29 27 27 32 35
12 13 17 15 20 12 11 9 5 5 9 9 13 9 8 8 9 7 5 6 6 10 8 2 5 8 7 7 6 6 8 9 10 11 12 13 15 16 18 21 26 27 27
11 4 5 6 13 10 8 11 12 4 6 9 5 8 10 6 2 4 6 4 1 5 9 8 7 8 9 7 8 8 9 11 12 12 13 13 13 13 15 15 17 20 22
12 11 12 2 1 8 6 4 6 1 6 2 9 13 12 10 8 10 9 7 6 5 4 9 5 6 7 6 3 2 4 6 7 11 15 15 15 17 19 18 19 18 17
4 6 10 6 8 13 7 3 3 9 5 10 11 9 12 16 11 10 7 6 10 8 6 6 8 9 7 4 3 4 6 9 10 11 11 13 14 18 19 20 20 21 24
3 3 2 5 8 7 5 4 2 12 15 14 13 14 13 13 11 11 8 5 4 1 4 4 4 6 5 6 8 9 10 11 12 13 13 14 15 16 16 16 18 20 19
5 4 1 5 3 4 9 11 10 12 20 19 18 17 14 12 9 6 6 6 4 5 5 7 9 10 9 8 9 11 11 12 12 12 9 8 11 14 14 15 15 15 15
7 5 6 7 8 8 12 16 19 18 15 13 13 11 10 10 9 9 11 7 7 8 9 6 4 4 3 8 13 12 12 12 12 12 11 9 10 12 13 13 15 16 16
12 10 12 12 11 11 14 12 11 13 14 12 11 12 10 13 11 11 9 9 9 9 10 7 6 7 11 12 13 14 14 14 13 13 14 13 11 16 17 18 16 19 19
Wind_Direction
184 208 225 201 209 198 188 211 207 222 242 226 229 219 245 293 308 287 285 282 288 293 254 253 262 265 269 260 250 250 238 223 222 229 216 213 203 194 201 177 183 196 203
180 208 220 197 209 198 197 229 205 234 233 176 206 229 239 232 246 264 267 252 247 265 267 274 265 261 274 278 266 248 231 224 217 218 206 206 198 187 196 186 192 214 209
183 197 212 213 208 197 195 210 204 225 210 208 242 259 232 237 240 276 260 228 243 249 273 266 267 267 273 278 284 257 214 205 218 225 214 207 199 194 190 186 188 220 202
202 193 202 212 220 210 195 205 215 198 192 198 226 251 255 271 260 247 259 278 247 243 256 269 280 265 275 272 281 235 205 210 214 224 207 204 204 197 197 195 197 221 215
209 194 199 217 221 217 206 210 216 207 199 200 218 244 259 265 266 250 256 280 291 264 259 291 259 282 287 262 236 196 190 210 235 214 207 206 211 208 208 207 212 223 220
211 202 203 201 211 204 210 209 214 213 212 231 229 232 247 252 266 253 240 267 239 267 272 267 287 312 330 285 222 216 216 233 232 230 220 224 222 219 219 214 207 204 213
204 205 208 206 204 203 204 205 209 220 224 219 233 248 253 268 285 262 260 257 220 219 266 284 292 248 341 338 275 221 219 232 237 235 239 244 238 231 221 214 215 220 221
212 212 210 207 208 206 211 205 211 215 225 228 241 241 248 259 286 266 263 261 218 218 217 243 265 284 253 247 23 359 230 224 230 242 246 249 247 240 236 236 236 225 218
219 212 211 212 205 204 206 202 205 214 216 223 226 236 246 259 302 307 242 235 228 235 223 231 242 243 262 253 189 247 306 254 245 237 223 225 233 229 230 226 226 216 223
223 224 215 212 207 203 208 203 205 203 207 202 230 235 247 292 340 347 299 224 216 214 227 245 272 251 261 258 210 222 250 290 295 291 259 233 240 240 242 240 234 232 234
232 228 226 210 200 205 202 209 208 203 188 189 221 221 265 302 1 358 41 167 200 215 234 251 257 293 263 253 245 232 230 245 240 274 299 281 255 246 250 242 240 241 241
247 241 225 204 191 194 201 205 206 199 189 205 204 216 279 308 343 4 30 203 224 235 233 244 259 257 254 267 257 248 242 241 248 261 265 263 271 265 261 261 256 246 241
267 295 263 182 166 185 207 213 192 195 195 183 215 164 245 251 311 352 339 219 228 244 248 244 255 255 265 280 270 263 252 247 246 242 248 264 265 262 270 263 253 247 244
241 267 189 159 172 195 206 205 220 208 176 191 205 202 217 278 279 295 308 273 243 260 258 257 259 264 269 269 269 267 267 262 257 252 243 245 250 253 251 250 246 243 248
206 196 207 212 212 218 194 203 193 205 207 201 179 181 168 195 229 258 283 277 274 284 260 274 259 272 281 287 283 276 275 268 262 261 257 250 250 250 253 253 256 251 257
232 196 203 203 195 193 190 202 212 215 210 217 206 207 215 235 254 271 281 278 267 266 268 271 270 267 261 266 255 257 256 271 274 268 263 256 250 251 245 229 229 245 259
229 231 208 203 205 209 203 193 200 171 159 143 114 107 113 99 97 73 51 21 6 14 1 306 291 299 296 283 281 270 265 258 261 266 265 257 254 257 263 266 262 246 246
252 221 221 206 211 220 192 175 208 195 183 167 144 138 97 81 96 80 49 26 26 2 356 354 358 338 334 317 306 295 283 282 280 275 270 273 274 270 272 281 276 274 268
114 105 92 70 121 119 122 137 151 91 139 193 171 160 133 96 100 103 73 42 69 13 23 318 335 330 339 336 343 327 323 323 317 304 295 291 290 287 283 285 287 285 284
8 348 20 51 88 72 69 51 45 81 67 51 253 178 150 115 56 47 63 71 317 341 4 354 349 358 348 344 356 14 11 358 358 360 351 341 338 319 304 299 302 302 298
46 48 57 32 288 56 35 48 26 150 217 151 250 165 141 106 113 148 146 127 76 61 37 32 46 42 8 18 52 351 310 313 309 316 318 321 316 326 323 319 320 313 313
309 341 321 299 284 294 318 8 315 255 119 162 132 147 138 121 116 118 141 123 109 107 130 114 72 52 35 326 284 289 306 318 315 316 314 307 307 307 311 305 313 319 317
296 272 286 318 303 291 290 258 166 107 101 115 120 125 127 119 112 93 89 75 84 22 342 331 320 342 41 358 11 6 348 339 337 334 335 327 321 317 312 304 303 306 302
254 219 125 101 54 71 90 93 92 98 109 109 106 115 113 119 106 112 77 75 41 35 20 33 43 51 60 53 30 14 1 355 350 354 338 357 345 346 349 350 344 337 334
61 78 119 94 101 111 108 121 113 109 107 102 97 103 101 112 113 93 94 81 45 81 83 69 25 357 321 342 342 348 354 354 344 337 337 325 329 331 332 332 332 333 328
59 78 103 101 101 114 103 104 101 98 99 100 103 104 102 92 88 97 80 59 55 66 71 64 0 343 335 344 347 345 343 338 335 335 334 334 331 325 316 311 312 311 312
Height
1498 1500 1501 1502 1504 1505 1505 1505 1507 1509 1510 1511 1513 1514 1513 1514 1514 1515 1515 1516 1517 1517 1517 1518 1518 1519 1518 1518 1518 1518 1518 1521 1521 1524 1527 1529 1531 1532 1533 1535 1538 1539 1542
1496 1499 1500 1501 1502 1504 1505 1506 1507 1508 1508 1510 1511 1512 1513 1514 1514 1515 1515 1515 1515 1516 1516 1517 1518 1517 1516 1515 1515 1515 1515 1518 1512 1521 1524 1527 1529 1531 1533 1534 1536 1536 1540
1493 1496 1497 1498 1499 1501 1502 1503 1505 1506 1508 1510 1512 1512 1512 1513 1513 1513 1513 1513 1513 1513 1514 1513 1514 1514 1514 1513 1511 1512 1513 1513 1512 1517 1520 1524 1527 1529 1532 1534 1535 1536 1538
1488 1490 1492 1494 1496 1497 1498 1499 1498 1500 1503 1506 1509 1511 1511 1511 1511 1512 1512 1511 1511 1512 1511 1511 1512 1511 1511 1510 1510 1511 1512 1512 1513 1514 1519 1522 1524 1527 1530 1532 1533 1535 1538
1484 1486 1488 1489 1492 1496 1498 1499 1500 1501 1502 1501 1503 1506 1508 1509 1509 1509 1509 1509 1510 1510 1510 1510 1509 1510 1510 1509 1510 1510 1511 1511 1514 1516 1518 1520 1522 1524 1527 1530 1532 1535 1537
1480 1483 1486 1487 1489 1491 1494 1497 1498 1498 1500 1501 1501 1501 1503 1503 1504 1506 1507 1507 1507 1509 1509 1509 1508 1508 1508 1509 1509 1509 1510 1512 1514 1514 1517 1518 1518 1522 1525 1528 1531 1533 1534
1476 1478 1481 1483 1486 1488 1490 1493 1495 1496 1496 1497 1499 1499 1499 1499 1499 1502 1503 1504 1505 1506 1508 1509 1509 1507 1507 1507 1508 1508 1510 1511 1512 1513 1515 1516 1516 1518 1521 1523 1526 1528 1530
1472 1472 1473 1475 1478 1482 1484 1486 1490 1492 1494 1495 1497 1498 1497 1495 1494 1495 1498 1500 1502 1503 1505 1508 1508 1508 1508 1507 1508 1508 1509 1509 1510 1511 1513 1514 1515 1516 1518 1521 1523 1526 1528
1465 1466 1466 1467 1470 1473 1477 1480 1483 1487 1489 1492 1494 1495 1496 1492 1492 1490 1491 1495 1498 1500 1503 1505 1506 1507 1507 1508 1508 1508 1508 1508 1508 1509 1511 1511 1512 1513 1515 1517 1519 1522 1523
1458 1462 1462 1460 1463 1467 1474 1477 1477 1480 1484 1486 1490 1491 1492 1490 1489 1486 1487 1490 1496 1498 1500 1502 1504 1505 1505 1506 1507 1508 1508 1508 1508 1509 1509 1510 1511 1512 1512 1514 1516 1517 1519
1456 1456 1455 1451 1460 1464 1467 1474 1474 1476 1478 1483 1485 1487 1488 1488 1485 1484 1483 1487 1493 1496 1498 1498 1500 1502 1503 1503 1505 1506 1508 1508 1508 1508 1508 1508 1509 1510 1510 1511 1513 1513 1515
1450 1454 1448 1436 1453 1459 1467 1469 1471 1473 1475 1476 1480 1482 1483 1484 1484 1484 1483 1485 1491 1494 1495 1496 1496 1498 1500 1500 1501 1502 1504 1506 1507 1508 1508 1507 1507 1507 1508 1509 1509 1510 1512
1447 1417 1419 1424 1440 1455 1466 1469 1471 1472 1474 1474 1476 1478 1480 1480 1481 1481 1483 1485 1487 1490 1493 1493 1494 1495 1496 1498 1498 1498 1499 1500 1502 1504 1506 1506 1505 1505 1504 1504 1505 1506 1508
1444 1431 1420 1419 1441 1458 1462 1462 1470 1471 1471 1473 1474 1474 1475 1478 1478 1479 1480 1483 1484 1486 1489 1490 1491 1492 1492 1493 1494 1495 1495 1496 1497 1498 1500 1502 1503 1503 1502 1502 1502 1502 1502
1439 1447 1440 1450 1452 1456 1455 1459 1464 1465 1468 1470 1472 1471 1472 1473 1475 1476 1477 1480 1482 1482 1485 1487 1488 1488 1489 1489 1489 1490 1491 1492 1492 1494 1495 1495 1498 1498 1497 1498 1498 1497 1495
1431 1436 1441 1443 1444 1447 1450 1455 1460 1459 1466 1467 1467 1465 1469 1470 1472 1473 1474 1475 1478 1479 1481 1483 1483 1485 1484 1486 1485 1486 1486 1486 1488 1489 1490 1490 1492 1491 1491 1491 1492 1493 1492
1438 1437 1436 1438 1440 1446 1450 1454 1458 1459 1462 1465 1465 1464 1466 1468 1471 1472 1474 1476 1478 1478 1478 1478 1480 1480 1481 1481 1482 1482 1481 1483 1481 1483 1483 1483 1485 1484 1484 1485 1485 1486 1485
1433 1433 1438 1438 1440 1446 1447 1451 1455 1458 1460 1461 1462 1464 1463 1465 1469 1471 1473 1474 1477 1477 1476 1476 1476 1478 1478 1478 1479 1479 1479 1478 1477 1477 1477 1477 1476 1477 1477 1478 1478 1478 1477
1432 1435 1432 1437 1435 1444 1445 1448 1453 1457 1458 1459 1460 1460 1462 1464 1466 1469 1471 1474 1476 1476 1476 1477 1476 1476 1476 1475 1474 1475 1475 1475 1474 1473 1474 1473 1473 1472 1471 1472 1471 1471 1470
1439 1438 1441 1440 1434 1443 1446 1447 1449 1451 1452 1453 1460 1460 1461 1464 1466 1469 1471 1473 1475 1475 1475 1476 1476 1475 1474 1474 1473 1473 1474 1473 1474 1473 1473 1472 1471 1470 1469 1468 1466 1465 1465
1448 1449 1447 1448 1448 1448 1450 1451 1456 1454 1455 1456 1459 1459 1462 1463 1464 1468 1470 1472 1474 1473 1475 1476 1475 1473 1474 1474 1473 1473 1473 1474 1473 1472 1471 1469 1468 1466 1465 1464 1462 1461 1459
1452 1451 1452 1452 1453 1452 1452 1451 1451 1453 1454 1456 1457 1461 1463 1464 1467 1469 1471 1473 1472 1473 1475 1473 1475 1474 1473 1472 1473 1471 1471 1471 1470 1470 1470 1468 1465 1463 1462 1460 1460 1456 1455
1452 1452 1452 1453 1454 1454 1452 1451 1451 1453 1454 1457 1459 1461 1466 1465 1468 1469 1470 1471 1472 1472 1474 1474 1473 1473 1472 1470 1470 1469 1469 1468 1467 1465 1465 1464 1463 1459 1456 1455 1455 1453 1452
1447 1448 1447 1447 1450 1452 1451 1452 1454 1453 1456 1460 1462 1465 1465 1465 1468 1469 1471 1471 1472 1472 1472 1473 1472 1472 1472 1472 1470 1470 1469 1467 1466 1465 1465 1463 1461 1458 1455 1453 1452 1450 1447
1449 1448 1447 1449 1453 1455 1456 1456 1457 1458 1459 1462 1464 1465 1466 1468 1469 1470 1472 1471 1472 1474 1474 1474 1474 1474 1473 1472 1470 1469 1467 1465 1464 1464 1463 1461 1459 1456 1455 1453 1451 1447 1447
1452 1453 1452 1454 1457 1458 1458 1459 1461 1461 1461 1464 1467 1467 1469 1469 1469 1471 1472 1473 1474 1475 1476 1476 1474 1473 1472 1471 1469 1467 1465 1464 1463 1461 1459 1457 1456 1453 1452 1449 1447 1445 1444